Springfield, MO

1:44 AM CDT on July 23, 2017 (GMT -0500)
Springfield-Branson Regional

Weather History for KSGF - January, 2011

Change the Weather History Date:

Friday, January 28, 2011

  Actual Average Record
Temperature  
Mean Temperature 44 °F 33 °F  
Max Temperature 62 °F 44 °F 74 °F (2013)
Min Temperature 25 °F 23 °F -4 °F (1977)
Degree Days  
Heating Degree Days 21 32  
Month to date heating degree days 1006 911  
Since 1 July heating degree days 2782 2721  
Cooling Degree Days 0 0  
Month to date cooling degree days 0 0  
Year to date cooling degree days 0 0  
Moisture  
Dew Point 31 °F    
Average Humidity 68    
Maximum Humidity 100    
Minimum Humidity 36    
Precipitation  
Precipitation 0.00 in 0.08 in 0.83 in (2006)
Month to date precipitation 0.26 2.24  
Year to date precipitation 0.26 2.24  
Snow  
Snow 0.00 in - - ()
Month to date snowfall 3.0  
Since 1 July snowfall 4.0  
Snow Depth 0.00 in    
Sea Level Pressure  
Sea Level Pressure 29.93 in    
Wind  
Wind Speed 7 mph (WSW)    
Max Wind Speed 16 mph    
Max Gust Speed 20 mph    
Visibility 10 miles    
Events      
T = Trace of Precipitation, MM = Missing Value Source: NWS Daily Summary

Daily Weather History Graph

Daily Weather History Graph

Search for Another Location

Airport or City:

Trip Planner

Search our weather history database for the weather conditions in past years. The results will help you decide how hot, cold, wet, or windy it might be!

Date:

Astronomy

Jan. 28, 2011 Rise Set
Actual Time 7:19 AM CST 5:33 PM CST
Civil Twilight 6:52 AM CST 6:01 PM CST
Nautical Twilight 6:20 AM CST 6:32 PM CST
Astronomical Twilight 5:49 AM CST 7:03 PM CST
Moon 2:54 AM CST (1/28) 12:41 PM CST (1/28)
Length of Visible Light 11h 09m
Length of Day
10h 13m
Waning Crescent, 27% of the Moon is Illuminated
Jan 28
Waning Crescent
Feb 2
New
Feb 11
First Quarter
Feb 18
Full
Feb 24
Last Quarter

Hourly Weather History & Observations

Time (CST) Temp. Windchill Dew Point Humidity Pressure Visibility Wind Dir Wind Speed Gust Speed Precip Events Conditions
12:52 AM 32.0 °F 28.7 °F 28.0 °F 85% 29.95 in 10.0 mi WNW 3.5 mph - N/A   Clear
1:52 AM 34.0 °F 28.8 °F 30.0 °F 85% 29.94 in 10.0 mi WNW 5.8 mph - N/A   Clear
2:52 AM 32.0 °F 27.5 °F 28.9 °F 88% 29.94 in 10.0 mi WNW 4.6 mph - N/A   Clear
3:52 AM 30.9 °F 26.2 °F 28.9 °F 92% 29.94 in 10.0 mi West 4.6 mph - N/A   Clear
4:52 AM 30.9 °F 27.5 °F 28.0 °F 89% 29.95 in 10.0 mi West 3.5 mph - N/A   Clear
5:52 AM 25.0 °F 19.3 °F 24.1 °F 96% 29.96 in 10.0 mi WSW 4.6 mph - N/A   Clear
6:52 AM 26.1 °F 20.5 °F 25.0 °F 96% 29.99 in 8.0 mi SW 4.6 mph - N/A   Clear
7:52 AM 26.1 °F 19.4 °F 26.1 °F 100% 30.01 in 6.0 mi SW 5.8 mph - N/A   Clear
8:52 AM 34.0 °F 28.8 °F 32.0 °F 92% 30.00 in 10.0 mi SW 5.8 mph - N/A   Clear
9:52 AM 41.0 °F 35.8 °F 33.1 °F 73% 30.01 in 10.0 mi SW 8.1 mph - N/A   Clear
10:52 AM 46.0 °F 41.9 °F 34.0 °F 63% 30.00 in 10.0 mi SW 8.1 mph - N/A   Clear
11:52 AM 51.1 °F - 35.1 °F 54% 29.96 in 10.0 mi WSW 4.6 mph - N/A   Clear
12:52 PM 55.0 °F - 36.0 °F 49% 29.93 in 10.0 mi SW 6.9 mph - N/A   Clear
1:52 PM 59.0 °F - 34.0 °F 39% 29.90 in 10.0 mi SW 10.4 mph - N/A   Clear
2:52 PM 61.0 °F - 34.0 °F 36% 29.88 in 10.0 mi WSW 12.7 mph - N/A   Clear
3:52 PM 61.0 °F - 34.0 °F 36% 29.87 in 10.0 mi SW 13.8 mph - N/A   Clear
4:52 PM 59.0 °F - 34.0 °F 39% 29.86 in 10.0 mi SW 11.5 mph - N/A   Clear
5:52 PM 51.1 °F - 33.1 °F 50% 29.88 in 10.0 mi SW 4.6 mph - N/A   Clear
6:52 PM 41.0 °F 37.1 °F 30.0 °F 65% 29.90 in 10.0 mi SW 5.8 mph - N/A   Clear
7:52 PM 46.0 °F 43.1 °F 32.0 °F 58% 29.89 in 10.0 mi SW 5.8 mph - N/A   Clear
8:52 PM 44.1 °F 39.5 °F 30.9 °F 60% 29.89 in 10.0 mi SW 8.1 mph - N/A   Clear
9:52 PM 43.0 °F 37.7 °F 30.9 °F 62% 29.88 in 10.0 mi SW 9.2 mph - N/A   Clear
10:52 PM 48.0 °F - 30.9 °F 52% 29.88 in 10.0 mi WSW 10.4 mph - N/A   Clear
11:52 PM 46.9 °F - 30.0 °F 52% 29.89 in 10.0 mi West 8.1 mph - N/A   Clear